Time,TemperatureF,DewpointF,PressureIn,WindDirection,WindDirectionDegrees,WindSpeedMPH,WindSpeedGustMPH,Humidity,HourlyPrecipIn,Conditions,Clouds,dailyrainin,SoftwareType,DateUTC
2013-05-19 00:13:00,80.4,68.0,29.51,SE,135,4.7,-999.0,66,-99.99,,,0.00,Acu-Link.com,2013-05-19 05:13:00,
2013-05-19 00:28:00,80.2,67.8,29.50,SSE,157,7.3,-999.0,66,-99.99,,,0.00,Acu-Link.com,2013-05-19 05:28:00,
2013-05-19 00:44:00,79.7,67.8,29.50,South,180,5.8,-999.0,67,-99.99,,,0.00,Acu-Link.com,2013-05-19 05:44:00,
2013-05-19 00:59:00,79.2,67.7,29.50,South,180,5.3,-999.0,68,-99.99,,,0.00,Acu-Link.com,2013-05-19 05:59:00,
2013-05-19 01:14:00,78.8,67.3,29.50,SE,135,3.7,-999.0,68,-99.99,,,0.00,Acu-Link.com,2013-05-19 06:14:00,
2013-05-19 01:30:00,78.4,66.9,29.51,South,180,2.7,-999.0,68,-99.99,,,0.00,Acu-Link.com,2013-05-19 06:30:00,
2013-05-19 01:45:00,78.1,67.1,29.51,ESE,112,2.7,-999.0,69,-99.99,,,0.00,Acu-Link.com,2013-05-19 06:45:00,
2013-05-19 02:00:00,77.5,66.9,29.50,SSE,157,6.8,-999.0,70,-99.99,,,0.00,Acu-Link.com,2013-05-19 07:00:00,
2013-05-19 02:15:00,77.2,67.1,29.50,SE,135,5.3,-999.0,71,-99.99,,,0.00,Acu-Link.com,2013-05-19 07:15:00,
2013-05-19 02:31:00,76.8,66.7,29.50,SE,135,3.2,-999.0,71,-99.99,,,0.00,Acu-Link.com,2013-05-19 07:31:00,
2013-05-19 02:46:00,76.3,66.6,29.49,SSE,157,4.7,-999.0,72,-99.99,,,0.00,Acu-Link.com,2013-05-19 07:46:00,
2013-05-19 03:01:00,75.9,66.2,29.49,South,180,4.7,-999.0,72,-99.99,,,0.00,Acu-Link.com,2013-05-19 08:01:00,
2013-05-19 03:17:00,75.7,66.4,29.49,ESE,112,5.3,-999.0,73,-99.99,,,0.00,Acu-Link.com,2013-05-19 08:17:00,
2013-05-19 03:32:00,75.6,66.3,29.49,SSE,157,3.7,-999.0,73,-99.99,,,0.00,Acu-Link.com,2013-05-19 08:32:00,
2013-05-19 03:47:00,75.0,66.1,29.49,ESE,112,3.7,-999.0,74,-99.99,,,0.00,Acu-Link.com,2013-05-19 08:47:00,
2013-05-19 04:02:00,74.7,65.8,29.48,South,180,8.9,-999.0,74,-99.99,,,0.00,Acu-Link.com,2013-05-19 09:02:00,
2013-05-19 04:18:00,74.3,65.8,29.48,SE,135,4.7,-999.0,75,-99.99,,,0.00,Acu-Link.com,2013-05-19 09:18:00,
2013-05-19 04:33:00,73.8,65.7,29.48,SW,225,4.7,-999.0,76,-99.99,,,0.00,Acu-Link.com,2013-05-19 09:33:00,
2013-05-19 04:48:00,73.2,65.9,29.48,South,180,3.7,-999.0,78,-99.99,,,0.00,Acu-Link.com,2013-05-19 09:48:00,
2013-05-19 05:03:00,72.9,66.0,29.47,SE,135,5.3,-999.0,79,-99.99,,,0.00,Acu-Link.com,2013-05-19 10:03:00,
2013-05-19 05:18:00,72.5,66.3,29.47,SE,135,7.3,-999.0,81,-99.99,,,0.00,Acu-Link.com,2013-05-19 10:18:00,
2013-05-19 05:33:00,72.1,66.6,29.48,SSE,157,6.3,-999.0,83,-99.99,,,0.00,Acu-Link.com,2013-05-19 10:33:00,
2013-05-19 05:48:00,71.6,66.5,29.48,SW,225,4.7,-999.0,84,-99.99,,,0.00,Acu-Link.com,2013-05-19 10:48:00,
2013-05-19 06:03:00,71.4,67.0,29.49,ESE,112,4.2,-999.0,86,-99.99,,,0.00,Acu-Link.com,2013-05-19 11:03:00,
2013-05-19 06:18:00,71.1,66.7,29.49,ESE,112,4.7,-999.0,86,-99.99,,,0.00,Acu-Link.com,2013-05-19 11:18:00,
2013-05-19 06:33:00,71.1,67.0,29.49,South,180,3.7,-999.0,87,-99.99,,,0.00,Acu-Link.com,2013-05-19 11:33:00,
2013-05-19 06:49:00,71.4,67.3,29.50,ESE,112,4.7,-999.0,87,-99.99,,,0.00,Acu-Link.com,2013-05-19 11:49:00,
2013-05-19 07:04:00,71.8,67.4,29.51,SSE,157,5.3,-999.0,86,-99.99,,,0.00,Acu-Link.com,2013-05-19 12:04:00,
2013-05-19 07:19:00,72.1,67.3,29.51,SSE,157,4.7,-999.0,85,-99.99,,,0.00,Acu-Link.com,2013-05-19 12:19:00,
2013-05-19 07:34:00,72.7,67.6,29.51,South,180,4.7,-999.0,84,-99.99,,,0.00,Acu-Link.com,2013-05-19 12:34:00,
2013-05-19 07:49:00,73.2,67.7,29.51,SSE,157,5.8,-999.0,83,-99.99,,,0.00,Acu-Link.com,2013-05-19 12:49:00,
2013-05-19 08:04:00,73.8,67.9,29.52,SSW,202,9.4,-999.0,82,-99.99,,,0.00,Acu-Link.com,2013-05-19 13:04:00,
2013-05-19 08:19:00,74.3,68.1,29.52,South,180,7.8,-999.0,81,-99.99,,,0.00,Acu-Link.com,2013-05-19 13:19:00,
2013-05-19 08:35:00,74.8,68.2,29.52,ESE,112,9.9,-999.0,80,-99.99,,,0.00,Acu-Link.com,2013-05-19 13:35:00,
2013-05-19 08:50:00,75.4,68.8,29.52,South,180,5.3,-999.0,80,-99.99,,,0.00,Acu-Link.com,2013-05-19 13:50:00,
2013-05-19 09:05:00,75.7,68.3,29.52,SSE,157,5.3,-999.0,78,-99.99,,,0.00,Acu-Link.com,2013-05-19 14:05:00,
2013-05-19 09:20:00,76.8,69.4,29.52,SW,225,3.7,-999.0,78,-99.99,,,0.00,Acu-Link.com,2013-05-19 14:20:00,
2013-05-19 09:35:00,77.7,68.7,29.53,SE,135,5.3,-999.0,74,-99.99,,,0.00,Acu-Link.com,2013-05-19 14:35:00,
2013-05-19 09:50:00,78.4,68.6,29.52,South,180,6.8,-999.0,72,-99.99,,,0.00,Acu-Link.com,2013-05-19 14:50:00,
2013-05-19 10:05:00,79.2,69.0,29.52,SE,135,7.3,-999.0,71,-99.99,,,0.00,Acu-Link.com,2013-05-19 15:05:00,
2013-05-19 10:20:00,79.7,69.0,29.51,SE,135,6.3,-999.0,70,-99.99,,,0.00,Acu-Link.com,2013-05-19 15:20:00,
2013-05-19 10:36:00,81.3,69.3,29.50,SSE,157,6.8,-999.0,67,-99.99,,,0.00,Acu-Link.com,2013-05-19 15:36:00,
2013-05-19 10:51:00,82.2,69.7,29.49,South,180,8.9,-999.0,66,-99.99,,,0.00,Acu-Link.com,2013-05-19 15:51:00,
2013-05-19 11:06:00,83.1,70.1,29.49,South,180,7.8,-999.0,65,-99.99,,,0.00,Acu-Link.com,2013-05-19 16:06:00,
2013-05-19 11:21:00,83.7,69.7,29.49,SW,225,7.8,-999.0,63,-99.99,,,0.00,Acu-Link.com,2013-05-19 16:21:00,
2013-05-19 11:36:00,84.4,70.4,29.47,SSW,202,5.8,-999.0,63,-99.99,,,0.00,Acu-Link.com,2013-05-19 16:36:00,
2013-05-19 11:52:00,85.1,69.6,29.47,SSE,157,15.0,-999.0,60,-99.99,,,0.00,Acu-Link.com,2013-05-19 16:52:00,
2013-05-19 12:07:00,87.4,70.8,29.46,SSE,157,7.8,-999.0,58,-99.99,,,0.00,Acu-Link.com,2013-05-19 17:07:00,
2013-05-19 12:22:00,86.9,70.3,29.46,SE,135,7.3,-999.0,58,-99.99,,,0.00,Acu-Link.com,2013-05-19 17:22:00,
2013-05-19 12:37:00,87.1,70.5,29.46,SSE,157,11.4,-999.0,58,-99.99,,,0.00,Acu-Link.com,2013-05-19 17:37:00,
2013-05-19 12:52:00,88.5,71.3,29.45,SSE,157,7.8,-999.0,57,-99.99,,,0.00,Acu-Link.com,2013-05-19 17:52:00,
2013-05-19 13:07:00,89.1,71.8,29.45,South,180,8.3,-999.0,57,-99.99,,,0.00,Acu-Link.com,2013-05-19 18:07:00,
2013-05-19 13:22:00,87.4,70.8,29.44,ESE,112,6.3,-999.0,58,-99.99,,,0.00,Acu-Link.com,2013-05-19 18:22:00,
2013-05-19 13:37:00,89.2,71.9,29.44,South,180,4.2,-999.0,57,-99.99,,,0.00,Acu-Link.com,2013-05-19 18:37:00,
2013-05-19 13:52:00,90.3,71.4,29.43,SE,135,7.3,-999.0,54,-99.99,,,0.00,Acu-Link.com,2013-05-19 18:52:00,
2013-05-19 14:08:00,91.4,71.8,29.43,SSE,157,9.9,-999.0,53,-99.99,,,0.00,Acu-Link.com,2013-05-19 19:08:00,
2013-05-19 14:23:00,90.1,71.7,29.42,South,180,7.8,-999.0,55,-99.99,,,0.00,Acu-Link.com,2013-05-19 19:23:00,
2013-05-19 14:38:00,90.3,71.4,29.42,SSE,157,7.8,-999.0,54,-99.99,,,0.00,Acu-Link.com,2013-05-19 19:38:00,
2013-05-19 14:53:00,90.0,71.6,29.41,SSE,157,7.3,-999.0,55,-99.99,,,0.00,Acu-Link.com,2013-05-19 19:53:00,
2013-05-19 15:08:00,89.1,71.3,29.41,SSE,157,9.4,-999.0,56,-99.99,,,0.00,Acu-Link.com,2013-05-19 20:08:00,
2013-05-19 15:23:00,87.8,70.6,29.41,SSW,202,8.9,-999.0,57,-99.99,,,0.00,Acu-Link.com,2013-05-19 20:23:00,
2013-05-19 15:38:00,89.2,71.4,29.41,WSW,247,7.8,-999.0,56,-99.99,,,0.00,Acu-Link.com,2013-05-19 20:38:00,
2013-05-19 15:54:00,89.6,71.8,29.40,South,180,5.8,-999.0,56,-99.99,,,0.00,Acu-Link.com,2013-05-19 20:54:00,
2013-05-19 16:09:00,89.1,71.8,29.39,South,180,6.8,-999.0,57,-99.99,,,0.00,Acu-Link.com,2013-05-19 21:09:00,
2013-05-19 16:24:00,89.8,72.0,29.39,SSE,157,5.3,-999.0,56,-99.99,,,0.00,Acu-Link.com,2013-05-19 21:24:00,
2013-05-19 16:39:00,90.1,72.3,29.38,South,180,8.3,-999.0,56,-99.99,,,0.00,Acu-Link.com,2013-05-19 21:39:00,
2013-05-19 16:54:00,91.6,72.6,29.37,SW,225,7.8,-999.0,54,-99.99,,,0.00,Acu-Link.com,2013-05-19 21:54:00,
2013-05-19 17:10:00,91.0,72.0,29.37,SSE,157,10.9,-999.0,54,-99.99,,,0.00,Acu-Link.com,2013-05-19 22:10:00,
2013-05-19 17:25:00,90.7,71.7,29.36,SSW,202,8.9,-999.0,54,-99.99,,,0.00,Acu-Link.com,2013-05-19 22:25:00,
2013-05-19 17:40:00,90.9,71.9,29.36,South,180,7.3,-999.0,54,-99.99,,,0.00,Acu-Link.com,2013-05-19 22:40:00,
2013-05-19 17:55:00,90.5,71.5,29.36,South,180,4.7,-999.0,54,-99.99,,,0.00,Acu-Link.com,2013-05-19 22:55:00,
2013-05-19 18:10:00,90.3,71.9,29.36,ESE,112,9.4,-999.0,55,-99.99,,,0.00,Acu-Link.com,2013-05-19 23:10:00,
2013-05-19 18:25:00,90.0,71.6,29.35,SSE,157,8.3,-999.0,55,-99.99,,,0.00,Acu-Link.com,2013-05-19 23:25:00,
2013-05-19 18:40:00,89.8,71.4,29.34,East,90,15.5,-999.0,55,-99.99,,,0.00,Acu-Link.com,2013-05-19 23:40:00,
2013-05-19 18:56:00,89.2,71.4,29.34,SSW,202,9.4,-999.0,56,-99.99,,,0.00,Acu-Link.com,2013-05-19 23:56:00,
2013-05-19 19:11:00,88.5,70.8,29.35,SSE,157,4.7,-999.0,56,-99.99,,,0.00,Acu-Link.com,2013-05-20 00:11:00,
2013-05-19 19:26:00,88.3,70.6,29.34,SSE,157,5.8,-999.0,56,-99.99,,,0.00,Acu-Link.com,2013-05-20 00:26:00,
2013-05-19 19:41:00,87.6,70.5,29.35,SSE,157,6.8,-999.0,57,-99.99,,,0.00,Acu-Link.com,2013-05-20 00:41:00,
2013-05-19 19:56:00,87.1,70.5,29.36,SW,225,6.3,-999.0,58,-99.99,,,0.00,Acu-Link.com,2013-05-20 00:56:00,
2013-05-19 20:11:00,86.7,70.6,29.37,SSE,157,5.8,-999.0,59,-99.99,,,0.00,Acu-Link.com,2013-05-20 01:11:00,
2013-05-19 20:26:00,86.4,70.8,29.38,SSW,202,4.2,-999.0,60,-99.99,,,0.00,Acu-Link.com,2013-05-20 01:26:00,
2013-05-19 20:42:00,85.8,70.8,29.38,SSE,157,3.7,-999.0,61,-99.99,,,0.00,Acu-Link.com,2013-05-20 01:42:00,
2013-05-19 20:57:00,85.3,70.3,29.39,SE,135,4.2,-999.0,61,-99.99,,,0.00,Acu-Link.com,2013-05-20 01:57:00,
2013-05-19 21:12:00,84.9,70.4,29.40,ESE,112,4.7,-999.0,62,-99.99,,,0.00,Acu-Link.com,2013-05-20 02:12:00,
2013-05-19 21:27:00,84.6,70.6,29.41,SSW,202,5.8,-999.0,63,-99.99,,,0.00,Acu-Link.com,2013-05-20 02:27:00,
2013-05-19 21:43:00,84.2,70.2,29.41,SSE,157,8.9,-999.0,63,-99.99,,,0.00,Acu-Link.com,2013-05-20 02:43:00,
2013-05-19 21:58:00,83.7,69.7,29.41,South,180,6.3,-999.0,63,-99.99,,,0.00,Acu-Link.com,2013-05-20 02:58:00,
2013-05-19 22:13:00,83.3,69.4,29.43,South,180,8.9,-999.0,63,-99.99,,,0.00,Acu-Link.com,2013-05-20 03:13:00,
2013-05-19 22:28:00,83.1,68.7,29.43,South,180,6.8,-999.0,62,-99.99,,,0.00,Acu-Link.com,2013-05-20 03:28:00,
2013-05-19 22:43:00,82.6,69.2,29.43,South,180,5.8,-999.0,64,-99.99,,,0.00,Acu-Link.com,2013-05-20 03:43:00,
2013-05-19 22:59:00,82.0,69.0,29.44,SE,135,6.8,-999.0,65,-99.99,,,0.00,Acu-Link.com,2013-05-20 03:59:00,
2013-05-19 23:14:00,81.7,68.8,29.44,SE,135,5.3,-999.0,65,-99.99,,,0.00,Acu-Link.com,2013-05-20 04:14:00,
2013-05-19 23:29:00,81.3,68.8,29.45,SE,135,6.8,-999.0,66,-99.99,,,0.00,Acu-Link.com,2013-05-20 04:29:00,
2013-05-19 23:44:00,81.0,68.5,29.45,SSE,157,6.8,-999.0,66,-99.99,,,0.00,Acu-Link.com,2013-05-20 04:44:00,
2013-05-19 23:59:00,80.6,68.6,29.46,SE,135,7.3,-999.0,67,-99.99,,,0.00,Acu-Link.com,2013-05-20 04:59:00,